TimeGMT,TemperatureF,Dew PointF,Humidity,Sea Level PressureIn,VisibilityMPH,Wind Direction,Wind SpeedMPH,Gust SpeedMPH,PrecipitationIn,Events,Conditions,WindDirDegrees,DateUTC
12:00 AM,38,37,97,29.30,6,SE,20.1,,,Rain,Light Rain,140,2013-01-19 00:00:00
12:00 AM,39.2,37.4,93,29.27,5.6,SE,18.4,-,N/A,Rain,Light Rain,140,2013-01-19 00:00:00
12:30 AM,39.2,37.4,93,29.30,5.6,SE,19.6,-,N/A,Rain,Light Rain,140,2013-01-19 00:30:00
1:00 AM,39.2,37.4,93,29.30,6.2,SE,18.4,-,N/A,Rain,Light Rain,130,2013-01-19 01:00:00
1:30 AM,39.2,37.4,93,29.30,5.6,SE,19.6,-,N/A,Rain,Light Rain,130,2013-01-19 01:30:00
2:00 AM,37.4,37.4,100,29.33,5.6,SE,18.4,-,N/A,Rain,Light Rain,130,2013-01-19 02:00:00
2:30 AM,37.4,35.6,93,29.33,5.6,SE,19.6,-,N/A,Rain,Light Rain,130,2013-01-19 02:30:00
3:00 AM,37.4,35.6,93,29.33,5.0,SE,18.4,-,N/A,Rain,Light Rain,130,2013-01-19 03:00:00
3:30 AM,37.4,35.6,93,29.36,5.0,SE,16.1,-,N/A,Rain,Light Rain,130,2013-01-19 03:30:00
4:00 AM,37.4,35.6,93,29.36,5.0,SE,16.1,-,N/A,Rain,Light Rain,130,2013-01-19 04:00:00
4:30 AM,37.4,35.6,93,29.39,5.0,ESE,17.3,-,N/A,Rain,Light Rain,120,2013-01-19 04:30:00
5:00 AM,37.4,35.6,93,29.39,5.0,ESE,19.6,-,N/A,Rain,Light Rain,120,2013-01-19 05:00:00
5:30 AM,35.6,33.8,93,29.39,5.0,SE,16.1,-,N/A,Rain,Light Rain,130,2013-01-19 05:30:00
6:00 AM,35,34,96,29.43,5,ESE,17.9,,,Rain,Light Rain,120,2013-01-19 06:00:00
6:00 AM,35.6,33.8,93,29.42,5.0,ESE,17.3,-,N/A,Rain,Light Rain,120,2013-01-19 06:00:00
6:30 AM,35.6,33.8,93,29.42,5.0,ESE,17.3,-,N/A,Rain,Light Rain,120,2013-01-19 06:30:00
7:00 AM,35.6,33.8,93,29.42,5.0,ESE,15.0,-,N/A,Rain-Snow,Light Rain,120,2013-01-19 07:00:00
7:30 AM,33.8,33.8,100,29.44,5.6,SE,11.5,-,N/A,Rain-Snow,Light Rain,130,2013-01-19 07:30:00
8:00 AM,35.6,33.8,93,29.44,5.6,ESE,9.2,-,N/A,Rain-Snow,Light Rain,120,2013-01-19 08:00:00
8:30 AM,35.6,33.8,93,29.47,3.7,East,9.2,-,N/A,Rain-Snow,Light Rain,90,2013-01-19 08:30:00
9:00 AM,35.6,33.8,93,29.47,3.1,ESE,11.5,-,N/A,Rain-Snow,Light Rain,120,2013-01-19 09:00:00
9:30 AM,35.6,33.8,93,29.47,3.7,ESE,10.4,-,N/A,Rain-Snow,Light Rain,120,2013-01-19 09:30:00
10:00 AM,35.6,33.8,93,29.50,3.7,ESE,8.1,-,N/A,Rain,Light Rain,110,2013-01-19 10:00:00
10:30 AM,35.6,33.8,93,29.50,4.3,East,10.4,-,N/A,Rain,Light Rain,100,2013-01-19 10:30:00
11:00 AM,35.6,33.8,93,29.50,3.7,ESE,11.5,-,N/A,Rain-Snow,Light Rain,120,2013-01-19 11:00:00
11:30 AM,35.6,33.8,93,29.50,3.7,ESE,10.4,-,N/A,Rain-Snow,Light Rain,120,2013-01-19 11:30:00
12:00 PM,35,33,89,29.54,4,ESE,8.9,,,Rain,Light Rain,120,2013-01-19 12:00:00
12:00 PM,35.6,33.8,93,29.50,3.7,ESE,9.2,-,N/A,Rain,Light Rain,120,2013-01-19 12:00:00
12:30 PM,35.6,33.8,93,29.50,3.1,ESE,6.9,-,N/A,Rain,Light Rain,110,2013-01-19 12:30:00
1:00 PM,35.6,33.8,93,29.50,4.3,ESE,8.1,-,N/A,,Light Drizzle,110,2013-01-19 13:00:00
1:30 PM,35.6,33.8,93,29.53,5.6,East,4.6,-,N/A,Rain,Light Rain,100,2013-01-19 13:30:00
2:00 PM,35.6,32.0,87,29.53,6.2,East,6.9,-,N/A,Rain,Light Rain,80,2013-01-19 14:00:00
2:30 PM,35.6,32.0,87,29.53,5.0,East,4.6,-,N/A,Rain,Light Rain,100,2013-01-19 14:30:00
3:00 PM,35.6,32.0,87,29.53,6.2,Variable,2.3,-,N/A,,Mostly Cloudy,0,2013-01-19 15:00:00
3:30 PM,35.6,32.0,87,29.53,6.2,East,5.8,-,N/A,,Light Drizzle,90,2013-01-19 15:30:00
4:00 PM,35.6,32.0,87,29.56,6.2,East,8.1,-,N/A,,Mostly Cloudy,100,2013-01-19 16:00:00
4:30 PM,35.6,30.2,81,29.56,6.2,ESE,8.1,-,N/A,,Mostly Cloudy,110,2013-01-19 16:30:00
5:00 PM,35.6,30.2,81,29.56,6.2,East,8.1,-,N/A,Rain,Light Rain,100,2013-01-19 17:00:00
5:30 PM,35.6,32.0,87,29.56,6.2,East,9.2,-,N/A,Rain,Light Rain,90,2013-01-19 17:30:00
6:00 PM,35.6,32.0,87,29.56,6.2,ESE,5.8,-,N/A,Rain,Light Rain,110,2013-01-19 18:00:00
6:30 PM,35.6,32.0,87,29.56,6.2,East,4.6,-,N/A,,Mostly Cloudy,100,2013-01-19 18:30:00
7:00 PM,35.6,32.0,87,29.56,6.2,NE,5.8,-,N/A,Rain,Light Rain,40,2013-01-19 19:00:00
7:30 PM,35.6,32.0,87,29.56,6.2,East,9.2,-,N/A,Rain,Light Rain,80,2013-01-19 19:30:00
8:00 PM,35.6,32.0,87,29.56,6.2,East,8.1,-,N/A,Rain,Light Rain,90,2013-01-19 20:00:00
8:30 PM,35.6,32.0,87,29.56,6.2,East,9.2,-,N/A,Rain,Light Rain,80,2013-01-19 20:30:00
9:00 PM,35.6,30.2,81,29.59,6.2,East,12.7,-,N/A,,Mostly Cloudy,100,2013-01-19 21:00:00
9:30 PM,35.6,30.2,81,29.56,6.2,East,10.4,-,N/A,,Mostly Cloudy,90,2013-01-19 21:30:00
10:00 PM,35.6,30.2,81,29.59,6.2,East,10.4,-,N/A,,Mostly Cloudy,100,2013-01-19 22:00:00
10:30 PM,35.6,30.2,81,29.59,6.2,East,11.5,-,N/A,Rain-Snow,Light Rain Showers,100,2013-01-19 22:30:00
11:00 PM,35.6,28.4,75,29.59,6.2,East,10.4,-,N/A,,Mostly Cloudy,90,2013-01-19 23:00:00
11:30 PM,35.6,28.4,75,29.56,6.2,East,12.7,-,N/A,,Mostly Cloudy,100,2013-01-19 23:30:00